METEOSAT 5 (MOP 2) 1 21140U 91015B 10063.65878537 -.00000178 +00000-0 +10000-3 0 01233 2 21140 011.4771 046.3576 0004493 166.1209 193.9347 00.98452930071641 NOAA 12 1 21263U 91032A 10065.46116431 .00000046 00000-0 38064-4 0 4807 2 21263 098.7697 078.6164 0013293 103.9078 256.3580 14.25619878977766 METEOSAT 6 1 22912U 93073B 10065.11243926 -.00000035 00000-0 00000+0 0 4980 2 22912 008.9727 056.7813 0002914 324.3788 250.5134 01.00273769 58099 NOAA 14 1 23455U 94089A 10065.45244716 .00000030 00000-0 39256-4 0 9727 2 23455 098.8837 146.8932 0009604 162.3226 197.8282 14.13780433782983 HIMAWARI 5 (GMS 5) 1 23522U 95011B 10066.04533438 +.00000064 +00000-0 +10000-3 0 04082 2 23522 008.1468 059.7869 0008239 326.3058 033.7293 00.99402426054558 GOES 10 1 24786U 97019A 10066.19724110 +.00000043 +00000-0 +10000-3 0 03547 2 24786 004.1756 069.8394 0003534 013.3990 039.9603 00.99068939047139 ORBVIEW 2 (SEASTAR) 1 24883U 97037A 10067.40661336 +.00000052 +00000-0 +20844-4 0 00758 2 24883 098.3701 198.4566 0002514 100.5200 259.6305 14.60027421670992 METEOSAT 7 1 24932U 97049B 10067.87657731 +.00000049 +00000-0 +00000-0 0 09440 2 24932 005.8371 066.3613 0000634 300.2044 173.0238 01.00278798045844 NOAA 15 1 25338U 98030A 10065.20541645 .00000198 00000-0 10354-3 0 2919 2 25338 098.6127 054.0170 0010964 020.1387 340.0246 14.24810947614082 GOES 11 1 26352U 00022A 10066.45773990 +.00000076 +00000-0 +10000-3 0 07365 2 26352 000.1713 086.4649 0001616 219.7845 247.9292 01.00269892036044 FENGYUN 2B 1 26382U 00032A 10064.83832104 -.00000273 +00000-0 +10000-3 0 02446 2 26382 004.9767 069.2045 0003642 262.4752 097.6717 01.00098380035481 NOAA 16 1 26536U 00055A 10065.16466392 .00000252 00000-0 16130-3 0 7688 2 26536 099.1758 080.1781 0009762 266.0935 093.9165 14.12549302487286 GOES 12 1 26871U 01031A 10065.09610576 -.00000265 00000-0 00000+0 0 4757 2 26871 000.3001 087.3478 0002892 307.9160 088.2192 01.00281207 31638 FENGYUN 1D 1 27431U 02024B 10067.89596429 -.00000237 +00000-0 -11180-3 0 08268 2 27431 098.6576 051.9316 0015893 026.3006 333.8985 14.09289805402098 NOAA 17 1 27453U 02032A 10065.28004961 -.00000099 00000-0 -24809-4 0 7748 2 27453 098.4444 119.8053 0012691 079.8237 280.4387 14.24135730400059 MSG 1 1 27509U 02040B 10067.00000000 +.00000046 +00000-0 +10000-3 0 04622 2 27509 000.5010 030.5510 0000409 165.4950 338.7620 01.00267191027643 KALPANA 1 (METSAT 1) 1 27525U 02043A 10067.62465870 -.00000093 +00000-0 +10000-3 0 00945 2 27525 000.0641 264.2890 0005697 139.3806 061.3703 01.00273122027458 INSAT 3A 1 27714U 03013A 10062.75176337 -.00000273 +00000-0 +10000-3 0 00321 2 27714 000.0818 270.4720 0004872 030.7075 224.2984 01.00269710025302 FENGYUN 2C 1 28451U 04042A 10067.69393038 -.00000373 +00000-0 +10000-3 0 08082 2 28451 002.0406 074.7372 0001552 328.2510 136.3523 01.00280485019706 MTSAT-1R 1 28622U 05006A 10063.51547056 -.00000295 00000-0 10000-3 0 3371 2 28622 000.0416 028.3585 0002025 157.4286 301.9863 01.00272093 18368 NOAA 18 1 28654U 05018A 10065.29199991 -.00000117 00000-0 -39878-4 0 2599 2 28654 098.9411 011.9070 0014301 347.5810 012.5010 14.11332505246921 MSG 2 1 28912U 05049B 10067.00000000 -.00000019 +00000-0 +00000-0 0 06251 2 28912 000.2080 082.8250 0001201 303.4460 139.1610 01.00274042015493 MTSAT-2 1 28937U 06004A 10066.45556942 -.00000258 +00000-0 +10000-3 0 07125 2 28937 000.0457 081.1653 0003541 262.0516 130.8484 01.00270179014871 FORMOSAT 3A 1 29047U 06011A 10067.89727147 +.00000016 +00000-0 +23108-4 0 01839 2 29047 071.9791 202.4479 0051005 048.1396 312.4126 14.27106532205498 FORMOSAT 3B 1 29048U 06011B 10067.64649695 +.00000390 +00000-0 +17471-3 0 02341 2 29048 071.9689 118.1219 0044918 357.5643 002.5255 14.27142644207932 FORMOSAT 3C 1 29049U 06011C 10067.80216201 +.00000361 +00000-0 +16364-3 0 01812 2 29049 072.0197 268.3569 0034687 059.6680 300.7870 14.27155490203731 FORMOSAT 3D 1 29050U 06011D 10067.92687596 +.00001102 +00000-0 +26646-3 0 04648 2 29050 072.0079 062.2811 0054349 284.9398 074.5608 14.54151650209723 FORMOSAT 3E 1 29051U 06011E 10067.83423385 +.00000373 +00000-0 +16522-3 0 02394 2 29051 072.0067 176.8422 0071133 288.7697 070.5677 14.27149232206323 FORMOSAT 3F 1 29052U 06011F 10067.67183555 +.00000360 +00000-0 +16273-3 0 02590 2 29052 072.0333 240.0669 0040761 028.1449 332.1875 14.27162932204609 GOES 13 1 29155U 06018A 10064.39900162 -.00000158 00000-0 10000-3 0 11 2 29155 000.4049 265.5126 0001949 253.8719 047.8379 01.00405025 13870 METOP-A 1 29499U 06044A 10067.77024993 +.00000181 +00000-0 +10272-3 0 00549 2 29499 098.6847 128.9575 0000709 093.7361 266.3900 14.21499793175603 FENGYUN 2D 1 29640U 06053A 10065.60651988 -.00000213 00000-0 10000-3 0 8518 2 29640 000.4086 101.9064 0002655 292.6635 074.4914 01.00272368 11935 FENGYUN 3A 1 32958U 08026A 10067.71606499 +.00000167 +00000-0 +10000-3 0 05421 2 32958 098.7376 141.2541 0001360 070.6998 289.4217 14.19608142092310 NOAA 19 1 33591U 09005A 10065.32854554 .00000361 00000-0 22451-3 0 4603 2 33591 098.7788 009.6855 0013531 218.1336 141.8884 14.11031813 55401